Terug naar catalogus

CONTINUUM-1

ActiefWetenschapSSO
NORAD 55045·PAYLOAD·🇦🇺 Australia

Gelanceerd Jan 3, 2023 vanaf Cape Canaveral Space Force Station

Loading…

Volgende Passages (komende 24 uur)

TLE

VersSource: Space-Track

Epoch: Sep 14, 2026, 14:38 UTC

1 55045U 23001AN  26257.60986469  .00009443  00000-0  29605-3 0  9990
2 55045  97.3270 319.7634 0009797 124.3135 235.9036 15.33231282205941

Volg CONTINUUM-1 in realtime met AllMySat

Download on the App Store